Vorticity
6 6 6 6 5 5 6 7 8 9 10 8 8 9 9 8 7 7 7 6 6 5 4 5 6 6 7 8 9 9 8 8 7 7 7 7 6 7 7 7 8 8
6 6 6 5 5 5 5 6 6 8 9 9 8 8 9 9 8 9 9 7 6 5 5 5 5 5 6 7 9 9 9 8 8 7 7 7 7 6 6 7 7 8
6 7 7 6 5 5 5 6 6 7 8 8 9 9 10 9 8 8 9 8 7 6 6 6 5 6 6 7 7 8 9 9 8 8 7 7 7 6 6 7 8 8
6 6 7 6 6 5 5 6 6 6 6 7 9 9 9 9 9 9 9 8 7 6 7 8 7 6 7 7 7 7 8 9 9 8 7 7 6 6 6 6 8 8
5 6 7 7 6 6 6 6 7 7 6 7 9 9 8 9 10 10 9 9 8 6 6 7 7 6 7 8 7 7 7 8 8 8 8 8 7 6 7 7 7 8
5 5 6 7 6 6 5 6 7 6 6 7 9 9 8 9 10 11 11 10 9 7 6 6 6 5 7 8 8 8 7 7 8 8 8 8 7 7 7 7 8 8
5 5 6 6 6 6 5 6 6 6 6 6 8 8 8 8 9 10 11 10 9 8 7 7 6 5 6 7 7 8 7 7 8 8 8 8 7 7 7 7 8 8
7 6 6 6 6 6 5 6 6 6 6 5 6 7 7 8 8 9 11 11 9 8 7 6 6 5 4 4 6 7 7 7 7 9 9 8 8 7 6 6 7 7
9 8 7 6 6 5 5 5 5 6 6 5 5 5 6 8 8 7 8 9 9 8 8 7 6 7 6 5 6 7 7 7 7 8 9 9 8 8 7 7 7 7
11 11 9 6 5 5 5 5 5 5 6 5 4 4 5 7 8 8 7 7 8 7 7 8 8 8 8 7 7 7 7 7 6 6 8 8 9 9 8 8 8 8
11 12 12 10 6 4 5 6 6 5 5 5 6 4 4 5 6 7 7 7 7 7 7 7 8 8 8 8 7 7 7 7 6 6 6 6 8 9 8 8 8 8
11 11 12 12 9 6 5 6 7 7 6 5 5 5 4 4 5 6 7 6 6 7 7 7 8 8 8 7 7 7 7 7 7 6 5 5 6 7 7 7 6 6
10 11 11 13 12 10 6 5 7 8 8 7 7 6 5 4 4 3 4 5 5 6 6 6 7 7 7 7 8 7 7 7 7 7 7 6 6 6 6 6 6 6
7 7 8 9 12 13 10 6 5 5 7 8 8 8 7 5 4 4 4 4 4 4 5 6 6 6 5 6 7 7 7 7 7 8 7 7 8 7 7 6 5 5
3 4 5 6 7 10 12 10 6 4 4 7 8 9 8 7 5 5 5 4 4 4 4 5 6 6 5 5 5 6 6 6 7 7 7 7 7 7 7 7 6 6
2 2 3 5 6 7 9 10 10 7 4 3 6 8 9 9 9 8 7 6 5 5 5 5 5 5 5 5 5 5 5 5 5 5 5 5 5 6 6 6 6 7
3 4 3 3 5 6 7 7 9 11 10 6 4 5 7 8 9 9 9 8 8 7 7 6 6 5 5 5 5 6 5 5 4 4 4 4 4 5 5 5 6 7
6 9 8 4 2 3 7 7 7 9 11 9 5 4 6 6 7 8 8 9 9 8 7 7 6 5 6 6 5 5 5 5 5 5 5 4 4 4 4 5 6 7
6 4 6 7 4 2 4 6 8 9 12 12 8 4 4 5 5 5 6 6 7 7 7 6 6 6 6 6 6 5 5 4 4 4 4 4 5 5 5 5 5 6
13 9 11 15 16 15 13 7 3 5 10 14 12 7 4 5 5 6 5 5 5 5 5 5 5 6 6 6 6 5 5 4 4 4 4 5 5 5 5 5 5 5
17 17 16 16 21 28 30 22 10 5 8 13 15 12 7 4 4 4 5 6 6 6 6 7 6 6 6 6 6 6 5 5 4 4 4 4 5 6 6 5 4 4
10 12 13 14 17 20 26 29 23 12 6 8 12 14 13 9 6 5 4 5 7 7 7 9 8 7 7 7 6 6 6 6 6 5 5 4 4 5 5 5 5 5
14 13 14 15 14 11 14 21 25 22 18 12 6 8 12 11 9 9 7 4 4 4 5 7 7 7 8 8 7 7 7 6 6 6 5 5 4 5 5 4 4 4
16 15 13 14 18 19 19 18 17 22 30 29 16 6 7 9 10 12 11 7 5 4 4 6 7 7 6 7 8 8 7 8 8 7 7 6 5 4 4 5 5 4
9 11 5 3 8 14 20 22 19 20 30 36 28 14 7 6 8 11 12 12 11 9 6 4 5 6 5 5 6 7 7 6 6 6 6 6 7 7 6 6 6 6
6 6 -1 -2 -2 -3 4 13 15 18 24 27 30 34 31 21 13 10 12 15 13 10 8 6 5 5 6 6 6 6 6 6 6 6 6 6 6 6 7 8 9 9
Height
5950 5951 5953 5954 5955 5956 5958 5959 5960 5961 5961 5962 5962 5963 5963 5964 5964 5965 5965 5966 5966 5967 5967 5968 5969 5969 5969 5969 5970 5970 5971 5971 5972 5973 5973 5973 5974 5974 5974 5975 5975 5976
5949 5950 5951 5953 5954 5955 5957 5958 5959 5960 5961 5961 5962 5962 5963 5963 5964 5965 5965 5966 5966 5967 5967 5968 5968 5969 5969 5969 5970 5970 5971 5971 5972 5972 5973 5973 5973 5974 5974 5974 5975 5976
5947 5949 5950 5951 5952 5954 5955 5957 5958 5959 5960 5960 5961 5962 5962 5963 5963 5964 5965 5965 5966 5966 5967 5968 5968 5968 5969 5969 5970 5970 5971 5971 5971 5972 5972 5973 5973 5973 5974 5974 5975 5975
5946 5947 5949 5950 5951 5953 5954 5955 5956 5957 5958 5959 5960 5961 5962 5962 5963 5963 5964 5965 5965 5966 5966 5967 5968 5968 5969 5969 5970 5971 5971 5971 5972 5972 5972 5972 5973 5973 5973 5974 5974 5975
5945 5946 5947 5949 5950 5951 5952 5954 5955 5956 5957 5958 5959 5960 5961 5961 5962 5963 5963 5964 5964 5965 5966 5966 5967 5968 5968 5969 5970 5970 5971 5972 5972 5972 5972 5972 5972 5973 5973 5973 5974 5974
5944 5945 5946 5947 5949 5950 5951 5952 5953 5955 5956 5957 5958 5958 5959 5960 5961 5961 5962 5963 5963 5964 5965 5966 5966 5967 5968 5968 5969 5970 5970 5971 5972 5972 5972 5973 5973 5973 5973 5973 5973 5974
5943 5944 5945 5946 5947 5948 5950 5951 5952 5953 5954 5956 5956 5957 5958 5958 5959 5960 5961 5961 5962 5963 5963 5964 5965 5966 5967 5967 5968 5969 5970 5970 5971 5972 5972 5972 5972 5972 5972 5972 5972 5973
5940 5942 5943 5945 5946 5947 5948 5949 5950 5951 5953 5954 5955 5956 5956 5957 5958 5958 5959 5960 5960 5961 5962 5963 5963 5964 5965 5966 5967 5968 5969 5970 5970 5971 5971 5971 5971 5972 5972 5972 5972 5972
5939 5940 5942 5943 5944 5945 5946 5947 5948 5950 5951 5952 5953 5954 5955 5955 5956 5957 5957 5958 5958 5959 5960 5961 5962 5963 5964 5965 5966 5967 5968 5968 5969 5969 5970 5970 5970 5971 5971 5971 5971 5971
5937 5939 5940 5941 5942 5943 5943 5945 5946 5947 5949 5950 5951 5952 5953 5954 5954 5955 5955 5956 5957 5957 5958 5959 5960 5961 5962 5963 5964 5965 5966 5967 5967 5968 5969 5969 5969 5970 5970 5971 5971 5971
5936 5937 5939 5940 5940 5941 5941 5942 5944 5945 5946 5947 5949 5950 5951 5951 5952 5952 5953 5954 5955 5956 5956 5957 5958 5959 5960 5961 5962 5963 5964 5965 5966 5967 5967 5968 5969 5969 5970 5970 5970 5970
5934 5935 5936 5937 5938 5939 5940 5941 5942 5944 5944 5945 5947 5948 5949 5949 5950 5950 5951 5951 5953 5954 5955 5955 5956 5957 5958 5959 5960 5961 5962 5963 5964 5965 5966 5967 5967 5968 5969 5969 5969 5969
5932 5933 5934 5935 5936 5937 5939 5940 5941 5942 5943 5944 5945 5946 5947 5947 5948 5948 5949 5950 5951 5952 5953 5954 5955 5955 5956 5957 5957 5958 5959 5961 5962 5963 5964 5965 5966 5967 5967 5968 5968 5968
5929 5930 5931 5932 5933 5934 5936 5937 5938 5940 5941 5942 5943 5944 5945 5946 5946 5946 5947 5948 5949 5950 5951 5952 5953 5954 5954 5955 5956 5956 5957 5959 5960 5961 5962 5963 5964 5965 5965 5966 5966 5966
5927 5927 5928 5928 5930 5931 5932 5933 5934 5935 5937 5938 5940 5942 5943 5944 5945 5945 5946 5947 5948 5949 5950 5950 5951 5952 5952 5953 5954 5955 5956 5957 5958 5959 5960 5961 5962 5962 5962 5963 5964 5964
5923 5924 5925 5926 5926 5928 5929 5930 5931 5932 5934 5935 5937 5939 5941 5943 5944 5945 5945 5946 5947 5948 5948 5949 5949 5950 5951 5952 5952 5953 5954 5955 5956 5957 5958 5959 5959 5959 5960 5960 5961 5962
5920 5922 5923 5923 5924 5925 5926 5927 5929 5931 5932 5934 5935 5936 5938 5940 5942 5944 5944 5945 5946 5946 5947 5947 5947 5948 5949 5950 5951 5952 5952 5953 5954 5955 5955 5956 5957 5957 5958 5958 5959 5960
5917 5919 5920 5920 5921 5923 5924 5924 5926 5929 5930 5931 5932 5933 5935 5936 5938 5940 5941 5942 5943 5944 5944 5945 5945 5946 5947 5948 5949 5950 5951 5951 5952 5953 5953 5954 5954 5955 5956 5957 5957 5958
5913 5915 5917 5918 5919 5920 5921 5922 5923 5925 5927 5928 5928 5929 5931 5932 5933 5934 5936 5938 5939 5939 5940 5941 5942 5943 5944 5946 5947 5947 5948 5949 5950 5951 5951 5952 5952 5953 5954 5955 5956 5956
5910 5911 5913 5914 5915 5916 5917 5919 5920 5921 5922 5924 5925 5926 5927 5928 5929 5930 5932 5933 5934 5935 5935 5936 5938 5939 5941 5942 5944 5945 5946 5947 5948 5948 5949 5950 5951 5951 5952 5952 5953 5954
5906 5908 5909 5911 5912 5911 5912 5914 5915 5916 5917 5919 5920 5921 5922 5924 5926 5927 5929 5930 5931 5932 5933 5933 5935 5936 5937 5939 5940 5942 5943 5944 5945 5946 5947 5948 5948 5949 5950 5950 5951 5951
5903 5904 5905 5907 5908 5908 5908 5909 5910 5911 5911 5913 5915 5916 5917 5920 5922 5924 5925 5927 5928 5929 5930 5931 5932 5933 5934 5935 5936 5938 5939 5941 5942 5943 5944 5944 5945 5946 5947 5947 5948 5949
5899 5900 5901 5902 5903 5904 5904 5905 5906 5907 5907 5909 5910 5911 5913 5916 5918 5920 5922 5923 5924 5925 5926 5927 5928 5930 5931 5932 5933 5934 5935 5937 5938 5939 5940 5941 5942 5942 5943 5944 5945 5946
5896 5897 5897 5898 5899 5900 5901 5901 5902 5903 5903 5904 5906 5908 5910 5912 5915 5916 5917 5918 5919 5920 5921 5922 5923 5925 5927 5929 5930 5931 5932 5933 5934 5936 5937 5938 5938 5939 5940 5941 5942 5942
5893 5894 5894 5895 5896 5896 5897 5898 5899 5899 5900 5901 5903 5904 5906 5908 5911 5912 5912 5913 5915 5916 5917 5918 5918 5920 5922 5924 5926 5927 5928 5929 5930 5931 5932 5934 5935 5936 5936 5937 5938 5939
5890 5891 5892 5893 5893 5894 5894 5895 5895 5896 5898 5899 5900 5901 5902 5904 5906 5907 5907 5909 5911 5912 5912 5913 5914 5915 5917 5919 5921 5923 5925 5926 5926 5927 5928 5929 5931 5932 5932 5933 5934 5934